Location: Hylvaty SDH
(49.9612°N, 16.4057°E)
Time: 03:37:16
(UTC+01:00)

Transit 2A - Visible Passes

Search period start: 25 January 2020 00:00
Search period end: 04 February 2020 00:00
Orbit: 601 x 958 km, 66.7° (Epoch: 24 January)

Date Brightness Start Highest point End Pass type
(mag) Time Alt. Az. Time Alt. Az. Time Alt. Az.
25 Jan 7.6 04:16:15 26° SE 04:16:15 26° SE 04:18:30 10° SE visible
25 Jan 7.5 05:56:47 17° WSW 05:56:47 17° WSW 05:59:24 10° SSW visible
26 Jan 8.6 03:43:47 12° SE 03:43:47 12° SE 03:44:14 10° SE visible
26 Jan 7.6 05:24:19 18° SSW 05:24:19 18° SSW 05:26:15 10° SSW visible
27 Jan 8.1 04:51:56 14° S 04:51:56 14° S 04:52:46 10° S visible
27 Jan 7.3 19:28:06 10° SSW 19:29:49 23° SSW 19:29:49 23° SSW visible
28 Jan 6.2 18:54:12 10° SSW 18:57:26 39° SSE 18:57:26 39° SSE visible
28 Jan 8.6 20:37:50 10° WSW 20:37:58 11° W 20:37:58 11° W visible
29 Jan 6.3 18:20:31 10° S 18:24:22 31° ESE 18:24:58 30° E visible
29 Jan 7.5 20:03:18 10° WSW 20:05:30 26° W 20:05:30 26° W visible
30 Jan 6.9 17:47:05 10° SSE 17:50:24 21° ESE 17:52:26 16° ENE visible
30 Jan 6.1 19:28:54 10° SW 19:32:58 54° WNW 19:32:58 54° WNW visible
31 Jan 5.5 18:54:38 10° SW 18:58:59 78° NW 19:00:21 43° NNE visible
31 Jan 8.5 20:39:52 10° WNW 20:40:53 14° WNW 20:40:53 14° WNW visible
01 Feb 5.4 18:20:32 10° SSW 18:24:52 73° SE 18:27:39 22° NE visible
01 Feb 7.7 20:05:03 10° W 20:08:10 22° NW 20:08:10 22° NW visible
02 Feb 5.8 17:46:36 10° SSW 17:50:48 49° ESE 17:54:53 11° NE visible
02 Feb 7.2 19:30:23 10° W 19:34:09 28° NW 19:35:25 24° N visible
03 Feb 6.8 18:55:49 10° WSW 18:59:52 37° NW 19:02:34 19° NNE visible
03 Feb 8.6 20:42:26 10° NW 20:43:04 11° NW 20:43:04 11° NW visible
